Location: ???? ???? ?????
(31.2680°N, 31.7283°E)
Time: 08:40:29
(UTC+00:00)

Hubble Space Telescope - Pass Details

Date: 13 July 2020
Orbit: 536 x 540 km, 28.5° (Epoch: 07 August)

Event Time Altitude Azimuth Distance (km) Brightness Sun altitude
Rises 19:22:38 0° 270° (W) 2,671 4.9 -25.1°
Reaches altitude 10° 19:24:57 10° 264° (W) 1,780 3.8 -25.5°
Enters shadow 19:26:50 24° 251° (WSW) 1,122 2.5 -25.7°
